#timestamp,LO_Frequency,Hit,StdDev 
1551520815.2,286046999.3,N
1551520835.0,286046998.2,N
1551520835.9,286046998.2,N
1551520855.8,286047000.7,N
1551520875.6,286046998.1,N
1551520895.4,286046999.1,N
1551520915.3,286046995.4,N
1551520935.1,286046996.2,N
1551520955.8,286046996.2,N
1551520975.7,286046996.2,N
1551520995.5,286046994.0,N
1551521015.4,286046993.7,N
1551521035.2,286046995.6,N
1551521055.0,286046995.4,N
1551521055.9,286046995.4,N
1551521075.8,286046997.7,N
1551521095.6,286046999.4,N
1551521115.4,286046999.9,N
1551521135.3,286047004.2,N
1551521155.1,286047001.6,N
1551521175.9,286047004.0,N
1551521195.7,286047001.9,N
1551521215.5,286047000.3,N
1551521235.4,286046998.1,N
1551521255.2,286046998.1,N
1551521275.1,286046999.1,N
1551521276.0,286046999.1,N
1551521295.8,286046995.1,N
1551521315.6,286046997.4,N
1551521335.5,286046996.5,N
1551521355.3,286047001.0,N
1551521375.1,286047000.6,N
1551521395.9,286047002.7,N
1551521415.7,286047001.4,N
1551521435.6,286047002.1,N
1551521455.4,286047001.9,N
1551521475.2,286047001.7,N
1551521495.1,286047005.8,N
1551521496.0,286047005.8,N
1551521515.8,286047007.2,N
1551521535.7,286047008.3,N
1551521555.5,286047009.5,N
1551521575.3,286047010.5,N
1551521595.2,286047009.9,N
1551521615.0,286047010.8,N
1551521615.9,286047010.8,N
1551521635.7,286047008.0,N
1551521655.6,286047007.5,N
1551521675.4,286047005.7,N
1551521695.3,286047003.7,N
1551521715.1,286047001.5,N
1551521716.0,286047001.5,N
1551521735.8,286047001.5,N
1551521755.7,286047002.6,N
1551521775.5,286047002.3,N
1551521795.3,286047001.5,N
1551521815.2,286047005.5,N
1551521835.0,286047007.5,N
1551521835.9,286047007.5,N
1551521855.8,286047006.3,N
1551521875.6,286047006.9,N
1551521895.4,286047004.9,N
1551521915.3,286047006.0,N
1551521935.1,286047007.0,N
1551521955.9,286047007.3,N
1551521975.7,286047008.8,N
1551521995.5,286047009.6,Y
1551522015.4,286047007.1,P
1551522035.2,286047008.6,P
1551522055.0,286047006.3,P
1551522056.0,286047006.3,Y
1551522075.8,286046998.4,P
1551522095.6,286046995.0,N
1551522115.5,286046995.1,N
1551522135.3,286046994.6,N
1551522155.1,286046992.0,N
1551522175.9,286046994.4,N
1551522195.7,286046991.8,N
1551522215.6,286046990.6,N
1551522235.4,286046990.6,N
1551522255.2,286046990.4,N
1551522275.1,286046989.4,N
1551522276.0,286046989.4,N
1551522295.8,286046986.9,N
1551522315.6,286046987.9,N
1551522335.5,286046986.0,N
1551522355.3,286046984.6,Y
1551522375.2,286046990.6,P
1551522395.0,286046991.1,P
1551522395.9,286046991.1,P
1551522415.7,286046988.6,Y
1551522435.6,286046998.2,P
1551522455.4,286046998.1,N
1551522475.3,286047002.5,N
1551522495.1,286047004.1,N
1551522496.0,286047004.1,N
1551522515.8,286047005.1,N
1551522535.7,286047007.3,N
1551522555.5,286047008.3,N
1551522575.4,286047009.8,N
1551522595.2,286047013.9,N
1551522615.0,286047012.5,N
1551522615.9,286047012.5,N
1551522635.8,286047014.9,N
1551522655.6,286047013.6,N
1551522675.4,286047011.1,N
1551522695.3,286047010.6,N
1551522715.1,286047008.9,N
1551522735.9,286047006.9,N
1551522755.7,286047005.5,N
1551522775.5,286047003.9,N
1551522795.4,286047001.8,N
1551522815.2,286046999.8,N
1551522835.0,286047002.8,N
1551522835.9,286047002.8,N
1551522855.8,286046998.3,N
1551522875.6,286046999.3,N
1551522895.5,286046999.4,N
1551522915.3,286046996.7,N
1551522935.1,286046997.5,N
1551522955.9,286046995.6,N
1551522975.7,286046995.2,N
1551522995.6,286046995.6,N
1551523015.4,286046995.5,N
1551523035.2,286046996.9,N
1551523055.1,286047001.2,N
1551523056.0,286047001.2,N
1551523075.8,286047000.3,N
1551523095.6,286047002.5,N
1551523115.5,286047004.1,N
1551523135.3,286047004.7,N
1551523155.2,286047007.5,N
1551523175.9,286047008.1,N
1551523195.7,286047010.5,N
1551523215.6,286047009.9,N
1551523235.4,286047009.7,N
1551523255.3,286047013.8,N
1551523275.1,286047015.4,Y
1551523295.8,286047013.7,P
1551523315.7,286047014.0,N
1551523335.5,286047013.0,N
1551523355.3,286047013.0,N
1551523375.2,286047015.4,Y
1551523395.0,286047004.4,P
1551523395.9,286047004.4,N
1551523415.8,286046999.9,N
1551523435.6,286046998.7,N
1551523455.4,286046997.3,N
1551523475.3,286046997.9,N
1551523495.1,286046993.7,N
1551523515.9,286046994.0,N
1551523535.7,286046994.5,N
1551523555.5,286046993.9,N
1551523575.4,286046995.7,N
1551523595.2,286046998.0,N
1551523615.0,286046998.8,N
1551523615.9,286046998.8,N
1551523635.8,286046998.4,N
1551523655.6,286047000.8,N
1551523675.5,286047000.6,N
1551523695.3,286047002.4,N
1551523715.1,286047004.0,N
1551523735.9,286047007.6,N
1551523755.7,286047007.0,N
1551523775.5,286047004.6,N
1551523795.4,286047006.0,N
1551523815.2,286047007.5,N
1551523835.1,286047007.3,N
1551523836.0,286047007.3,N
1551523855.8,286047007.2,N
1551523875.6,286047004.6,N
1551523895.5,286047004.9,N
1551523915.3,286047004.6,N
1551523935.2,286047005.3,N
1551523955.9,286047006.0,N
1551523975.7,286047005.0,N
1551523995.6,286047006.6,N
1551524015.4,286047008.3,N
1551524035.2,286047010.3,N
1551524055.1,286047009.9,N
1551524056.0,286047009.9,N
1551524075.8,286047013.3,N
1551524095.7,286047011.5,N
1551524115.5,286047012.9,Y
1551524135.3,286047005.0,P
1551524155.2,286047003.2,P
1551524175.0,286046999.7,N
1551524175.9,286046999.7,N
1551524195.8,286046998.5,N
1551524215.6,286046996.9,N
1551524235.4,286046997.4,N
1551524255.3,286046994.0,N
1551524275.1,286046992.8,N
1551524295.8,286046991.5,N
1551524315.7,286046989.1,N
1551524335.5,286046989.6,N
1551524355.4,286046989.9,N
1551524375.2,286046989.6,N
1551524395.0,286046988.8,N
1551524395.9,286046988.8,N
